Simultaneous Nadir Overpasses (SNOs) Predictions

Prediction of SNOs between NOAA-19 and NPP Satellite Orbit:

Table of predicted SNOs for the next 14.0 days since TLE Epoch: 4/27/2012
Index Date (NOAA-19) Time (NOAA-19) NOAA-19 Lat,Lon Date (NPP) Time (NPP) NPP Lat,Lon Distance(km) Time Diff (sec)
1 05/03/2012 13:39:30 80.58, -71.02 05/03/2012 13:40:28 80.57, -70.87 2.85 58
2 05/03/2012 14:30:26 -80.54, 96.86 05/03/2012 14:31:11 -80.54, 96.97 2.07 45
3 05/03/2012 15:21:31 80.49, -95.10 05/03/2012 15:21:54 80.48, -94.97 2.44 23
4 05/03/2012 16:12:27 -80.45, 72.76 05/03/2012 16:12:37 -80.44, 72.85 1.69 10
5 05/03/2012 17:03:31 80.37,-118.87 05/03/2012 17:03:19 80.36,-118.77 2.05 12
6 05/03/2012 17:54:27 -80.33, 48.96 05/03/2012 17:54:02 -80.32, 49.03 1.34 25
7 05/03/2012 18:45:31 80.24,-142.70 05/03/2012 18:44:44 80.23,-142.61 1.67 47




NCC Satellite Simultaneous Nadir Overpasses (SNOs) Prediction Service
